Lapse_Rate
9.5 9.6 9.5 9.5 8.6 8.0 7.4 6.8 6.9 7.2 7.0 6.6 6.3 6.0 6.1 6.0 5.9 6.5 6.1 5.6 6.5 7.1 7.8 7.4 7.1 6.7 6.8 6.5 6.5 6.1 6.5 6.5 6.5 6.5 6.5 4.8 6.4 6.2 6.1 5.1 5.2 5.5 5.3 5.0 5.6
9.5 9.5 9.6 9.5 9.6 9.2 8.2 7.4 7.0 6.0 7.2 6.8 6.4 6.0 6.1 6.2 6.3 6.6 6.6 7.8 8.9 8.7 7.4 7.1 7.1 6.9 5.7 6.0 5.6 5.8 6.5 6.5 6.5 6.4 6.5 6.0 6.0 5.4 5.9 6.0 5.8 5.2 5.5 5.5 5.7
9.4 9.4 9.5 9.5 9.6 9.5 8.9 8.0 7.2 6.6 6.1 6.9 6.5 6.1 6.2 6.7 6.9 5.8 6.8 8.0 9.3 8.8 7.7 7.3 6.7 7.0 5.9 5.9 5.3 5.9 6.5 6.5 6.3 5.6 6.3 6.1 5.7 5.6 6.0 6.5 4.7 5.0 4.7 4.6 3.8
9.2 9.4 9.3 9.6 9.4 9.5 9.6 8.9 7.9 7.2 6.9 6.2 6.8 6.3 6.3 6.9 6.5 6.8 7.8 8.1 9.3 8.0 7.5 6.8 6.7 6.7 6.2 6.5 5.7 6.5 6.2 6.3 6.3 6.3 6.3 6.5 5.7 5.8 6.1 6.0 5.1 5.4 5.5 6.2 5.0
9.2 9.4 9.4 9.3 9.2 9.4 9.5 9.4 8.9 7.8 7.0 6.3 6.9 6.8 6.4 6.8 7.1 7.0 7.1 8.4 8.6 7.3 6.6 6.6 6.2 6.3 6.5 6.3 5.8 6.5 6.4 6.1 5.9 5.2 6.1 6.0 6.2 6.3 5.3 4.8 4.0 3.8 4.8 5.9 5.3
8.6 8.7 8.6 9.2 9.3 9.4 9.4 9.3 9.2 8.0 6.8 5.7 6.7 7.4 6.2 6.5 8.1 7.6 6.6 6.6 7.0 6.8 6.1 6.1 6.5 6.0 6.0 6.2 6.4 6.1 6.3 6.3 6.0 5.7 5.9 6.4 6.1 6.1 5.9 4.7 4.0 4.1 4.0 4.0 4.7
8.6 8.7 8.8 9.2 9.1 9.3 9.4 9.3 8.9 8.6 7.2 5.8 6.9 7.2 7.5 6.4 8.2 8.5 8.0 6.9 7.5 7.2 6.3 6.1 7.1 6.3 6.2 6.5 6.1 6.2 6.5 6.5 6.2 5.9 6.4 5.8 6.5 6.5 4.9 4.6 4.8 4.3 3.6 4.2 4.3
9.2 8.4 8.1 8.7 8.2 8.4 9.2 9.0 8.0 8.0 7.5 6.0 6.6 7.6 6.8 8.3 7.7 8.4 7.5 7.3 8.4 8.6 7.5 7.3 6.5 6.5 6.8 6.6 6.5 6.5 6.5 6.5 6.5 6.3 6.1 6.0 6.5 6.5 4.7 4.7 5.0 5.2 5.4 4.6 4.8
8.4 8.3 8.3 8.3 8.3 8.2 8.1 8.3 7.7 7.4 7.8 6.3 6.9 6.9 6.9 7.4 7.7 7.7 7.1 7.5 7.5 7.9 7.9 7.7 6.2 6.5 6.9 6.5 6.5 6.5 6.5 6.5 6.5 6.3 6.5 6.5 6.5 6.6 5.6 5.1 4.6 4.4 5.1 5.0 5.3
8.4 8.3 7.8 8.4 8.6 8.4 7.8 7.7 7.1 7.6 6.7 6.7 7.6 6.9 7.5 7.4 7.6 8.1 7.2 7.6 7.4 6.7 6.9 6.7 6.6 6.5 6.5 6.5 6.5 6.5 6.5 6.5 6.5 6.5 6.5 6.5 6.5 6.5 4.7 5.0 4.4 3.5 3.0 3.0 3.5
8.3 8.3 8.4 9.3 8.1 8.0 7.1 5.6 6.0 6.0 6.0 6.9 7.2 7.1 7.1 8.0 8.3 7.5 7.5 7.5 7.1 6.5 6.5 6.5 6.5 6.5 6.5 6.5 6.5 6.5 6.5 6.5 6.5 6.5 6.5 6.5 6.5 6.5 5.9 5.0 5.9 5.9 4.1 3.6 4.5
8.5 9.0 9.2 8.5 7.9 7.4 6.5 6.6 6.8 6.3 6.7 7.4 7.6 6.8 7.5 8.1 7.1 7.4 7.7 6.6 6.2 6.5 6.5 6.5 6.5 6.5 6.5 6.5 6.5 6.5 6.5 6.5 6.5 6.5 6.5 6.5 6.5 6.5 6.5 6.4 6.1 6.1 4.7 3.8 4.4
9.3 9.0 8.3 7.9 7.7 6.7 5.9 6.7 6.1 6.6 6.7 7.0 7.1 7.5 7.1 7.4 7.0 6.7 7.5 6.7 6.5 6.5 6.5 6.5 6.5 6.5 6.5 6.5 6.5 6.5 6.5 6.5 6.5 6.5 6.5 6.5 6.5 6.5 6.5 6.2 6.3 6.4 6.1 5.9 5.2
9.0 8.3 8.1 8.1 6.8 6.9 6.7 6.3 6.4 6.1 6.5 6.5 6.6 7.3 7.4 7.0 6.6 7.6 7.4 6.7 6.5 6.5 6.5 6.5 6.5 6.5 6.5 6.5 6.5 6.5 6.5 6.5 6.5 6.5 6.5 6.5 6.5 6.5 6.5 6.5 6.5 4.3 3.5 4.9 4.9
8.7 8.4 8.0 7.6 6.9 6.9 7.7 5.7 6.2 5.9 6.5 6.5 6.6 8.5 6.7 6.5 6.5 6.7 7.4 7.2 6.5 6.5 6.5 6.5 6.5 6.5 6.5 6.5 6.5 6.5 6.5 6.5 6.5 6.5 6.5 6.5 6.5 6.5 6.5 6.5 6.5 6.5 3.2 1.9 1.4
8.3 8.2 8.0 6.8 6.5 7.0 7.5 6.6 6.3 6.5 6.5 6.5 6.7 6.5 6.5 6.5 6.7 6.5 7.0 7.2 7.1 6.5 6.5 6.5 6.4 6.5 6.5 6.5 6.5 6.5 6.5 6.5 6.5 6.5 6.5 6.5 6.5 6.5 6.5 6.5 6.5 6.5 4.5 2.7 4.1
8.0 7.8 7.3 7.2 6.9 7.2 6.6 6.3 6.5 6.5 6.5 6.5 6.5 6.5 6.5 6.5 6.5 6.5 6.5 6.5 6.5 6.5 6.5 6.5 6.5 6.5 6.5 6.5 6.5 6.5 6.5 6.5 6.5 6.5 6.5 6.5 6.5 6.5 6.5 6.5 6.5 6.5 4.2 4.4 3.7
7.6 7.3 6.1 7.4 7.2 7.3 6.0 6.4 6.5 6.5 6.5 6.5 6.5 6.5 6.5 6.5 6.5 6.5 6.5 6.5 6.5 6.5 6.5 6.5 6.5 6.5 6.5 6.5 6.5 6.5 6.5 6.5 6.5 6.5 6.5 6.5 6.5 6.5 6.5 6.1 4.5 4.7 3.5 3.5 3.5
6.6 5.3 6.9 5.9 6.4 5.8 6.3 6.5 6.5 6.5 6.5 6.5 6.5 6.5 6.5 6.5 6.5 6.5 6.5 6.5 6.5 6.5 6.5 6.5 6.5 6.5 6.5 6.5 6.5 6.5 6.5 6.5 6.5 6.5 6.5 6.5 6.5 6.5 6.5 6.5 6.3 5.9 4.7 3.2 3.7
5.0 6.2 7.1 7.0 7.1 6.5 6.5 6.5 6.5 6.5 6.5 6.5 6.5 6.5 6.5 6.5 6.5 6.5 6.5 6.5 6.5 6.5 6.5 6.5 6.5 6.5 6.5 6.5 6.5 6.5 6.5 6.5 6.5 6.5 6.5 6.5 6.5 6.5 6.5 6.5 6.5 6.5 5.1 5.0 4.9
4.0 6.4 6.7 6.8 6.1 6.8 6.5 6.5 6.5 6.8 6.7 6.5 6.5 6.5 6.5 6.5 6.5 6.5 6.5 6.5 6.5 6.5 6.4 6.5 6.5 6.5 6.5 6.5 6.5 6.5 6.5 6.5 6.5 6.5 6.5 6.5 6.5 6.5 6.5 6.5 6.5 6.5 5.4 5.0 4.3
4.4 6.4 6.0 5.8 6.4 6.7 6.5 6.5 6.8 6.5 6.9 6.5 6.5 6.5 6.5 6.5 6.5 6.5 6.5 6.5 5.8 6.3 6.5 6.5 6.5 6.5 6.5 6.5 6.5 6.5 6.5 6.5 6.5 6.5 6.5 6.5 6.5 6.5 6.5 6.5 6.3 6.2 6.4 6.6 5.4
4.7 5.4 6.8 6.7 6.5 6.5 6.5 6.5 6.5 6.5 6.5 6.5 6.5 6.5 6.5 6.5 6.5 6.5 6.5 6.3 6.0 6.5 6.5 6.5 6.5 6.5 6.5 6.5 6.5 6.5 6.5 6.5 6.5 6.5 6.5 6.5 6.5 6.5 6.5 6.5 6.5 6.5 6.7 7.0 6.5
4.5 6.5 5.3 6.4 6.7 6.5 6.5 6.5 6.5 6.6 6.5 6.4 6.5 6.4 6.5 6.5 6.5 6.5 6.5 6.5 6.2 6.5 6.2 6.0 6.5 6.5 6.5 6.5 6.5 6.5 6.5 6.5 6.5 6.5 6.5 6.5 6.5 6.5 6.5 6.5 6.5 6.6 6.8 7.1 7.1
5.6 6.1 6.3 6.5 6.5 6.5 6.5 6.5 6.5 6.5 6.4 6.3 6.5 6.5 6.5 6.5 6.5 6.5 6.5 6.5 6.4 6.5 6.4 6.5 6.5 6.5 6.5 6.5 6.5 6.5 6.5 6.5 6.5 6.5 6.5 6.5 6.5 6.5 6.5 6.5 6.5 6.8 6.7 6.9 6.4
6.3 6.5 6.7 5.5 6.6 6.5 6.5 6.5 6.5 6.5 6.5 6.5 6.5 6.5 6.5 6.5 6.5 6.5 6.5 6.5 6.5 6.5 6.5 6.5 6.5 6.5 6.5 6.5 6.5 6.5 6.5 6.5 6.5 6.5 6.5 6.5 6.5 6.5 6.6 6.7 6.7 6.8 7.0 6.8 6.2
6.0 6.4 6.4 5.8 6.5 6.5 6.5 6.5 6.5 6.5 6.3 6.2 6.5 6.5 6.5 6.5 6.1 5.7 5.3 5.4 6.3 6.5 6.5 6.5 6.5 6.5 6.5 6.5 6.5 6.5 6.5 6.5 6.5 6.5 6.5 6.5 6.5 6.5 6.5 6.5 6.6 6.8 7.0 7.0 6.3
Wind_Speed
20 20 20 21 20 21 20 21 22 14 12 11 10 11 11 10 12 7 9 8 16 16 1 3 4 6 4 3 3 3 2 5 7 8 6 12 5 4 1 5 4 2 5 6 10
20 20 22 20 21 20 22 21 23 20 15 12 11 10 10 8 7 12 8 17 16 17 6 5 6 6 2 4 3 5 6 7 4 9 6 6 4 6 3 3 1 4 3 6 8
21 22 22 19 22 21 19 21 23 23 16 13 11 9 8 6 4 6 23 21 20 12 5 4 6 4 6 4 5 5 5 4 10 11 2 4 7 5 5 1 6 6 7 5 8
22 22 22 22 20 22 22 20 22 22 22 15 11 8 5 3 5 0 3 25 18 11 5 4 5 3 7 8 6 6 4 13 13 13 4 3 5 7 2 4 8 3 3 4 8
23 22 22 23 19 21 21 20 22 21 21 13 10 8 2 4 6 3 4 25 12 6 8 8 4 5 6 6 6 5 7 11 9 8 5 3 4 4 8 8 11 9 5 5 6
24 24 23 22 23 21 21 20 22 20 22 22 12 8 3 6 4 10 8 7 7 8 8 6 5 8 4 6 5 3 2 3 5 7 5 7 6 2 3 8 12 12 13 6 7
22 24 23 21 20 21 22 20 21 21 18 22 15 7 6 9 4 7 2 7 9 10 6 9 1 4 4 2 3 3 4 7 6 6 5 7 7 7 9 9 13 13 12 16 9
22 21 24 22 18 20 21 18 20 22 18 24 20 7 5 6 18 4 4 4 4 4 13 6 0 1 2 1 2 4 3 2 7 10 8 9 12 6 11 8 13 19 17 14 18
22 20 20 20 18 19 19 21 22 21 19 21 10 6 5 6 9 9 6 4 5 2 2 10 5 0 2 4 1 2 3 5 7 9 6 11 2 14 9 11 9 12 17 16 17
21 19 19 19 21 15 17 20 22 16 10 9 4 3 5 8 6 8 6 6 4 5 5 5 3 3 2 4 5 5 4 4 6 5 2 5 9 8 10 8 10 10 9 10 10
20 18 20 17 14 12 9 4 3 3 6 5 9 3 1 7 7 11 7 7 5 3 4 4 3 5 9 6 4 5 6 5 4 5 2 6 9 10 11 10 17 17 12 13 15
21 21 18 17 15 13 5 3 1 3 5 12 9 14 10 10 7 10 7 6 6 6 5 4 2 5 8 9 10 5 7 5 6 5 4 11 20 17 17 19 19 19 11 13 14
22 19 18 19 12 9 5 5 9 8 4 9 6 14 7 4 6 13 10 7 8 6 6 5 2 7 5 2 7 2 4 3 5 7 6 7 9 8 7 14 19 19 19 15 17
21 21 21 19 11 2 3 5 11 9 3 10 6 9 6 5 4 6 6 6 4 9 6 1 1 3 4 3 3 0 4 5 4 4 4 6 6 7 9 10 5 10 10 16 16
21 21 26 20 4 3 1 12 7 4 4 13 9 9 7 2 13 8 2 1 6 6 6 6 3 5 3 2 5 3 6 5 4 3 5 3 2 8 6 6 6 7 9 10 11
24 27 28 8 3 8 9 7 1 1 4 6 8 11 8 10 2 7 4 1 2 4 5 4 3 3 6 2 4 5 4 3 3 2 2 8 7 4 3 3 3 3 6 7 4
28 29 22 5 2 9 8 3 3 3 2 6 8 15 12 9 6 9 9 5 4 5 2 2 2 3 3 4 2 4 5 2 2 2 6 2 4 7 9 10 6 9 7 4 7
28 30 7 4 6 6 3 2 2 2 3 8 15 16 7 12 9 9 7 4 3 3 4 5 3 8 5 5 6 6 5 4 5 3 4 1 7 6 9 13 8 8 7 7 8
25 2 2 4 12 3 1 2 2 4 2 8 14 6 5 4 7 7 5 5 5 4 5 4 3 4 9 3 5 3 3 4 1 2 2 5 7 8 8 8 7 5 4 10 3
2 2 3 6 6 3 2 4 4 5 9 12 4 3 7 7 6 5 8 6 5 8 1 1 4 5 4 4 4 5 4 2 2 2 5 6 5 8 4 5 8 9 9 4 4
3 3 4 9 3 1 1 3 3 8 12 2 5 7 10 6 6 7 11 6 9 9 6 1 2 2 2 5 6 4 5 4 2 3 3 4 5 5 6 2 4 7 4 4 8
2 3 4 5 3 1 3 3 4 4 9 5 4 8 12 6 8 3 9 2 9 10 6 3 4 3 8 6 8 5 6 6 4 4 4 3 7 12 17 14 9 16 18 20 15
2 1 1 2 2 1 3 3 4 4 3 3 1 4 14 5 6 2 5 5 8 7 12 6 1 1 1 3 1 5 6 8 3 2 8 3 7 5 15 22 24 22 19 19 14
2 2 2 2 1 1 1 2 4 5 4 5 11 14 7 1 5 7 4 4 4 3 8 6 4 5 5 3 3 3 3 6 9 4 8 15 23 26 23 23 23 19 18 19 15
1 1 1 2 2 2 1 5 7 6 6 5 8 9 6 5 6 5 7 3 5 2 4 4 2 1 5 6 4 6 9 9 10 15 10 25 21 25 26 19 21 15 8 8 8
2 2 3 3 4 5 5 3 6 5 5 7 9 12 10 4 2 8 7 4 4 2 3 2 2 2 5 9 10 9 13 13 15 18 19 23 25 19 15 16 13 5 7 12 7
2 2 2 4 3 1 3 2 3 2 7 6 5 7 10 3 5 4 4 3 7 7 5 5 3 1 4 5 6 5 7 12 5 5 6 9 14 15 18 13 8 10 12 11 12
Wind_Direction
345 342 340 336 329 332 332 335 331 257 259 262 268 277 284 293 303 267 225 218 215 240 248 256 207 231 266 253 230 151 185 209 220 232 253 296 318 315 215 125 102 25 135 171 160
335 335 335 337 333 324 325 326 325 328 249 249 254 265 280 298 279 255 230 217 235 223 184 218 207 208 216 217 254 167 204 225 221 235 266 274 37 304 141 149 31 72 31 133 141
330 329 325 329 331 327 320 324 320 322 302 240 247 254 272 302 264 248 217 221 210 186 185 215 266 206 201 235 236 201 190 226 267 266 353 320 318 342 356 188 214 194 177 250 167
323 320 322 325 323 324 318 311 312 311 316 240 232 244 263 251 218 282 270 200 196 173 170 216 241 226 181 213 231 247 235 233 260 273 273 288 309 330 114 278 315 231 198 160 260
315 315 316 319 320 317 314 311 304 308 309 270 220 227 210 213 247 244 6 189 182 172 201 213 214 197 183 197 242 231 240 248 253 288 281 270 262 253 289 303 306 316 345 301 263
311 322 319 316 316 315 311 306 304 303 307 312 201 198 225 232 194 165 134 119 179 182 210 211 218 207 208 240 203 258 178 296 305 309 320 272 258 229 295 297 303 306 293 227 251
324 311 314 313 314 314 306 301 304 298 299 312 193 178 231 230 157 138 193 184 194 192 197 208 282 170 197 242 303 106 21 342 308 283 255 341 277 233 241 257 265 275 278 285 221
319 321 311 314 317 314 307 305 299 296 291 290 190 175 245 233 244 152 225 250 238 195 201 164 26 120 102 271 29 53 43 319 247 235 234 168 256 248 237 226 249 253 254 257 274
322 317 313 312 320 319 311 306 296 285 284 284 169 171 230 153 196 173 193 201 198 147 144 134 74 349 99 110 73 208 232 228 293 240 206 182 212 242 240 243 255 247 242 241 246
329 326 320 317 317 323 323 310 284 280 277 254 84 128 247 201 165 178 201 205 165 132 100 137 140 137 113 158 198 197 228 244 234 298 220 233 252 267 277 251 257 247 241 237 233
332 327 318 325 333 335 340 340 360 205 227 154 178 244 193 157 138 172 182 146 132 128 150 178 157 180 196 193 243 271 299 274 270 327 325 265 275 265 269 263 266 264 246 250 249
325 320 324 326 324 308 310 245 285 103 311 215 224 229 116 130 127 174 179 136 137 175 147 122 182 189 194 204 232 266 276 278 298 351 23 308 291 276 257 256 242 252 245 249 252
325 324 319 316 312 301 211 210 138 83 278 192 219 207 158 143 139 179 174 131 151 162 160 144 138 207 220 274 201 237 268 292 268 339 349 343 291 255 281 244 247 247 247 246 242
325 320 319 319 297 208 256 115 125 101 255 158 222 195 150 166 113 167 195 143 151 158 157 112 173 113 132 222 145 26 34 68 48 46 258 74 291 287 269 277 251 243 241 238 237
325 321 318 313 281 221 225 123 132 84 203 150 150 136 158 178 127 197 213 338 160 144 122 228 162 138 138 208 162 179 93 72 40 12 353 281 216 277 255 272 274 295 265 241 226
325 316 314 296 196 216 175 120 101 247 235 139 140 156 126 157 86 133 145 30 83 148 136 124 82 102 185 131 81 127 69 45 43 59 312 223 182 269 231 203 205 252 325 258 205
319 317 318 261 288 136 131 140 70 250 303 132 144 145 141 136 119 155 154 142 135 113 138 87 133 133 78 128 113 94 79 10 348 217 237 135 186 251 279 273 243 262 273 161 179
316 313 293 261 116 152 110 90 137 238 63 129 135 136 126 125 134 149 144 143 269 84 105 141 316 161 186 172 173 163 162 161 218 216 275 268 236 254 236 254 270 224 225 219 192
309 355 14 17 129 73 316 48 295 345 143 126 112 117 129 121 131 147 166 160 198 180 126 125 261 151 164 155 125 191 184 185 46 300 42 248 300 308 314 355 31 14 311 271 262
65 34 41 45 78 35 8 14 332 310 117 138 87 183 134 146 122 124 166 193 193 195 154 1 111 144 149 162 228 157 170 98 4 281 281 282 259 244 337 356 9 7 336 4 152
48 40 344 331 41 38 5 23 321 314 163 173 144 121 129 142 128 151 183 167 178 189 160 166 84 91 145 197 187 180 205 204 143 176 222 288 262 236 210 103 338 336 6 300 274
47 47 316 350 49 335 305 23 358 298 268 278 125 112 147 145 145 142 184 225 182 156 167 146 114 183 214 232 200 180 194 161 135 258 247 221 270 263 271 296 326 318 317 291 255
54 90 281 9 42 13 334 7 255 314 344 95 126 90 147 133 137 179 90 357 166 153 167 148 104 48 38 8 175 196 210 200 220 38 230 262 266 257 322 313 304 302 307 294 287
83 40 306 239 218 19 50 329 304 242 24 50 106 112 117 121 117 144 107 41 57 93 134 121 151 172 184 182 99 204 221 196 191 222 266 244 276 288 290 297 302 298 304 294 277
15 258 240 324 70 305 258 2 12 35 359 19 127 154 112 86 77 98 92 87 55 103 70 96 170 286 265 253 197 222 241 240 237 248 250 276 280 288 296 306 306 300 316 320 356
30 360 349 283 135 37 19 328 5 16 19 53 78 61 68 83 215 148 133 156 185 174 111 108 258 61 288 251 237 246 245 239 242 253 255 263 276 278 287 303 330 297 310 319 339
333 296 271 290 333 124 226 254 113 45 16 40 71 87 67 38 70 83 102 115 144 141 165 154 146 91 272 312 337 275 235 215 208 206 228 262 273 300 315 322 349 338 332 304 293